IUS DEB, 43367

Orbit data source: Space-Track

IUS DEB, 43367 is space debris originally from a launch on Fri, 23 Jul 1999 UTC launched from the Air Force Eastern Test Range (AFETR). Debris objects in space refer to the collection of defunct objects orbiting the Earth. Examples of debris include non-operational satellites, rocket bodies, and fragments generated from explosions, collisions, or faulty payload assembly.

Loading next visibility...
Identifier
43367, 1999-040Q
Orbit
Active
Country
Flag of USUS
Related business
Manufacturer
Boeing/Kent
Mission
Spacecraft
Bus & Motor
Unknown
Mass
Unknown
Launch date (UTC)
1999-07-23 (26 years ago)
Launch vehicle
Unknown
Launch site
Air Force Eastern Test Range (AFETR)
Object type
Payload
Rocket body
Debris
Shape & HBR
Unknown shape, 0.1 m
Radar Cross Section
Small (<0.1 m²)

Expand to show TLE details & history
Last TLE update: 2 days ago

TLE from 2 days ago
0 IUS DEB
1 43367U 99040Q   25300.26584714  .00000139  00000-0  90413-3 0  9995
2 43367  28.0929 274.1776 3768395 124.8683 276.5890  7.01060307104862
Epoch: 2025-10-27T06:22Z
TLE epoch observation values (Epoch: 2025-10-27T06:22:49.192Z)
Latitude
Longitude
142.60247°
Altitude
6,228.231 km
Speed
5.356 km/s
True Right ascension
18h 16m 42s
True Declination
0° 00' 00"
Sunlit
Object was in daylight at epoch
Visualization orbit readout
Latitude
Unknown
Longitude
Unknown
Altitude
Unknown
Speed
Unknown
Apparent Right ascension
Unknown
Apparent Declination
Unknown
Sunlit
N/A
Visualization observer readout
Local Sidereal Time
13:13:18
Azimuth
Unknown
Elevation
Unknown
Doppler factor
Unknown
Orbital elements
Apogee altitude
9,503.769 km
Perigee altitude
810.048 km
Semi-major axis
11,535.045 km
Eccentricity
0.37684
Inclination
28.0929°
RAAN
274.1776°
Arg. of periapsis
124.8683°
True anomaly
235.17395°
Mean anomaly
276.589°
Eccentric anomaly
255.66952°
Mean motion
1.75192 °/min
Orbital period
205.49 mins
BSTAR
0.00090413
Loading maneuver chart data...
Computing Atmospheric mass density...
Loading historical data...
Loading historical data...
Loading historical data...
Loading historical data...
Loading historical data...
Loading historical data...
Loading historical data...

Documentation

Showing up to 5 results
|